Погода в Черёмухово

Россия / Свердловская область     57°13′58″N   63°39′15″E
темп.,
°C
ветер,
м/с
пор.,
м/с
влажн.,
%
обл.,
%
осадки,
мм/ч
давл.,
гПа
погр.,
м
11 апреля, вс
вс1123:00+3ю413937 0.0 1036330
02:00+2ю5149144 0.0 1035349
05:00+2ю6158992 0.0 1035374
08:00+3ю61685100 0.0 1035404
11:00+6ююз71684100 0.0 1034448
14:00+8ююз71484100 0.0 1033479
17:00+8ююз6138781 0.0 1032462
20:00+7ююз51393100 0.0 1032367
12 апреля, пн
пн1223:00+6юз41294100 0.0 1032277
02:00+6зюз3995100 0.1 1032206
05:00+6з2699100 1.9 1033160
08:00+7сз379899 0.9 1034427
11:00+8сз3573100 0.9 1035548
14:00+10сз4666100 0.0 1035954
17:00+10сз3668100 0.0 1036842
20:00+6сз23743 0.0 103847
13 апреля, вт
вт1323:00+4ссз22795 0.0 103926
02:00+2сз22822 0.0 104011
05:00+1сз22830 0.0 104111
08:00+4з12760 0.0 1041125
11:00+8зюз24580 0.0 1041559
14:00+11юз35465 0.0 1039859
17:00+11зюз36515 0.0 1038839
20:00+7юз35735 0.0 103688
14 апреля, ср
ср1423:00+6ююз3108284 0.0 1035175
02:00+6юз4118898 0.0 1033219
05:00+6юз31093100 0.0 1032179
08:00+8юз41190100 0.0 1031285
11:00+13зюз47725 0.0 1030477
14:00+16з466426 0.0 1028958
17:00+17зюз476290 0.0 10271215
20:00+13зюз227988 0.0 102626
15 апреля, чт
чт1523:00+11зюз358548 0.0 102574
02:00+9зюз378529 0.0 1024106
05:00+7зюз398517 0.0 1024163
08:00+9зюз310745 0.0 1023297
11:00+14з585143 0.0 1022647
14:00+17з56415 0.0 10201042
17:00+17зюз47396 0.0 10191242
20:00+12зюз335735 0.0 101827